AirNav   ProFlight Series 2 Aviation Headset
 
 1074 users online  

17NE Jefferson County Memorial Hospital Heliport
Fairbury, Nebraska, USA

GOING TO FAIRBURY?


FAA INFORMATION EFFECTIVE 18 JUNE 2020

Location

FAA Identifier: 17NE
Lat/Long: 40-09-17.5800N 097-10-26.1600W
40-09.293000N 097-10.436000W
40.1548833,-97.1739333
(estimated)
Elevation: 1433 ft. / 436.8 m (surveyed)
Variation: 07E (1985)
From city: 1 mile N of FAIRBURY, NE
Time zone: UTC -5 (UTC -6 during Standard Time)
Zip code: 68352

Heliport Operations

Heliport use: Private use, MEDICAL.
Activation date: 07/1980
Control tower: no
ARTCC: MINNEAPOLIS CENTER
FSS: COLUMBUS FLIGHT SERVICE STATION
Attendance: UNATNDD
Wind indicator: yes
Segmented circle: no

Heliport Communications

WX AWOS-3 at HJH (19 nm W): 118.525 (402-768-2501)

Nearby radio navigation aids

VOR radial/distance  VOR name  Freq  Var
BIEr238/(21.1)BEATRICE VOR110.6007E

 
NDB name  Hdg/Dist  Freq  Var  ID
FAIRBURY190/1.429306EFBY ..-. -... -.--
BEKLOF138/31.739207EFMZ ..-. -- --..

Heliport Services

Runway Information

Helipad H1

Dimensions: 40 x 40 ft. / 12 x 12 m
Surface: concrete
Latitude: 40-09.293000N
Longitude: 097-10.436000W
Elevation: 1433.0 ft.
Traffic pattern: leftleft
Obstructions: 30 ft. bldg, 45 ft. from runway
NW OF LANDING PAD.

Heliport Ownership and Management from official FAA records

Ownership: Publicly-owned
Owner: JEFFERSON COMMUNITY HEALTH & LIFE
2200 H STREET
FAIRBURY, NE 68352
Phone 402-729-3351
Manager: CHANCE KLASEK, CFO
2200 H STREET
FAIRBURY, NE 68352
Phone 402-729-3351

Additional Remarks

FOR CD CTC MINNEAPOLIS ARTCC AT 651-463-5588.

Instrument Procedures

There are no published instrument procedures at 17NE.

Some nearby airports with instrument procedures:

KFBY - Fairbury Municipal Airport (2 nm N)
KHJH - Hebron Municipal Airport (19 nm W)
KBIE - Beatrice Municipal Airport (21 nm NE)
K38 - Washington County Veteran's Memorial Airport (26 nm S)
KCEK - Crete Municipal Airport (30 nm N)
 
Loc | Ops | Rwys | IFR | FBO | Links
Com | Nav | Svcs | Stats | Notes

Silverhawk Aviation, Inc.
AirBoss

 
Area around 17NE (Jefferson County Memorial Hospital Heliport)
 
Road maps at: MapQuest Bing Google
 
Aerial photo
No photo
 
Sectional chart

 
Airport distance calculator
Flying to Jefferson County Memorial Hospital Heliport? Find the distance to fly.

From to 17NE

Sunrise and sunset
Times for 02-Jul-2020
 Local
(UTC-5)
 Zulu
(UTC)
Morning civil twilight05:3210:32
Sunrise06:0511:05
Sunset21:0102:01
Evening civil twilight21:3302:33

Current date and time
Zulu (UTC)  02-Jul-2020 23:01:42
Local (UTC-5)  02-Jul-2020 18:01:42
 
METAR
KHJH 
19nm W 
022255Z AUTO 11009KT 10SM CLR 31/22 A2996 RMK AO2 T03050224
KBIE 
21nm E 
022255Z AUTO 12011KT 10SM SCT030 30/23 A2998 RMK AO2 T02980228
KMYZ 
31nm SE 
022255Z AUTO 10010KT 10SM SCT030 30/23 A2998 RMK AO2
TAF
KLNK 
45nm NE 
021727Z 0218/0318 15011KT P6SM SCT025 TEMPO 0218/0220 BKN025 FM030200 11009KT P6SM BKN150
NOTAMs
Click for the latest NOTAMs
NOTAMs are issued by the DoD/FAA and will open in a separate window not controlled by AirNav.

 

 
 

Would you like to see your business listed on this page?

 If your business provides an interesting product or service to pilots, flight crews, aircraft, or users of the Jefferson County Memorial Hospital Heliport, you should consider listing it here.  To start the listing process, click on the button below
 
Add a business
 

Other Pages about Jefferson County Memorial Hospital Heliport

Update a link
 
Copyright © AirNav, LLC. All rights reserved. Privacy Policy  Contact